Location: Canazei
(46.4667°N, 11.7667°E)
Time: 17:25:53
(UTC+00:00)

Cosmos 1766 - Pass Details

Date: 21 April 2021
Orbit: 522 x 542 km, 82.5° (Epoch: 11 May)

Event Time Altitude Azimuth Distance (km) Brightness Sun altitude
Rises 02:14:07 0° 355° (N) 2,715 7.4 -18.8°
Reaches altitude 10° 02:16:20 10° 360° (N) 1,818 6.5 -18.5°
Maximum altitude 02:20:15 54° 78° (ENE) 668 4.0 -18.0°
Drops below altitude 10° 02:24:09 10° 156° (SSE) 1,801 5.8 -17.5°
Enters shadow 02:25:19 - 159° (SSE) 2,278 6.3 -17.3°
